INTELSAT 906 (IS-906)

Last updated on Aug. 6, 2020, 5:30 a.m. UTC

1 27513U 02041A   20218.82896553 -.00000000  00000-0  00000-0 0  9995
2 27513   0.3978  99.5023 0002912  43.5373 174.3365  1.00271737 65552
UTC
Height (km)
Latitude
Longitude
Inclination
Orbital Period
UTC large
Height (km)
Speed (km/s)
/
Latitude / Longitude
Inclination (degrees)
Orbital Period (minutes)
Azimuth
Elevation
Range (km)
Doppler Factor
iOS Compass Heading
iOS Angle

Next 30 passes for location: Hong Kong

Rise time Rise Azimuth (degrees) Set time Set Azimuth (degrees) Duration Max altitude (degrees)

No matching passes for this satellites